Powrót do katalogu

STARLINK-5363

AktywnyŁącznośćVLEO
NORAD 55497·PAYLOAD·🇺🇸 United States

Wystrzelony Feb 2, 2023 z Cape Canaveral Space Force Station

Loading…

Następne Przeloty (najbliższe 24 godziny)

TLE

ŚwieżeSource: CelesTrak SupGP

Epoka: Sep 15, 2026, 03:11 UTC

1 55497C 23015BA  26258.13312500  .00019014  00000+0  68881-3 0  2585
2 55497  43.0043 349.9944 0002086 271.7142 189.0003 15.27562056    19

Śledź STARLINK-5363 w czasie rzeczywistym z AllMySat

Download on the App Store